Location: Kelshall
(52.0000°N, 0.0500°W)
Time: 21:15:21
(UTC+00:00)

ATLAS 2AS CENTAUR R/B - Pass Details

Date: 25 January 2021
Orbit: 947 x 1265 km, 63.7° (Epoch: 13 February)

Event Time Altitude Azimuth Distance (km) Brightness Sun altitude
Rises 21:52:39 0° 311° (NW) 4,171 6.5 -46.9°
Reaches altitude 10° 21:55:33 10° 315° (NW) 3,170 5.7 -47.3°
Enters shadow 21:58:24 25° 321° (NW) 2,225 4.7 -47.6°
